Location: Unspecified
(0.0000°N, 0.0000°E)
Time: 07:35:52
(UTC+00:00)

S-56A Canister/Altair - Pass Details

Date: 30 May 2024
Orbit: 637 x 2489 km, 38.9° (Epoch: 22 June)

Event Time Altitude Azimuth Distance (km) Brightness Sun altitude
Rises 00:17:28 0° 228° (SW) 5,129 - -67.7°
Reaches altitude 10° 00:20:27 10° 227° (SW) 4,342 - -67.5°
Maximum altitude 00:33:09 89° 137° (SE) 2,366 - -66.5°
Exits shadow 00:43:00 28° 48° (NE) 3,841 11.1 -65.5°
Drops below altitude 10° 00:48:25 10° 48° (NE) 5,112 11.9 -64.9°
Sets 00:52:16 0° 48° (NE) 6,049 12.4 -64.4°
